Location: Mentone
(34.5413°N, 85.5351°W)
Time: 18:55:43
(UTC-05:00)

Centaur AC-72 - Visible Passes

Search period start: 24 March 2017 00:00
Search period end: 03 April 2017 00:00
Orbit: 1113 x 35242 km, 19.4° (Epoch: 23 March)

Date Brightness Start Highest point End Pass type
(mag) Time Alt. Az. Time Alt. Az. Time Alt. Az.
25 Mar 9.2 01:03:42 10° SE 02:01:58 12° SE 02:43:14 10° SE visible
26 Mar 8.6 03:35:33 10° SW 04:18:37 11° SW 05:14:01 10° SW visible
26 Mar 7.5 23:24:19 10° SW 02:39:20 27° S 09:16:57 10° ESE visible
27 Mar 6.7 20:22:50 10° SW 20:37:47 23° S 06:18:46 10° ESE visible
29 Mar 9.1 00:56:05 10° SE 01:47:51 11° SE 02:25:36 10° ESE visible
30 Mar 8.6 03:13:35 10° SW 04:06:08 12° SW 05:17:24 10° SW visible
30 Mar 7.6 23:08:51 10° SW 02:43:01 27° S 09:01:14 10° ESE visible
31 Mar 6.7 20:07:18 10° SW 20:21:49 22° S 06:03:04 10° ESE visible
02 Apr 9.1 00:48:09 10° SE 01:33:36 11° SE 02:07:45 10° ESE visible
